Theta_e
309 309 310 309 310 299 305 305 300 303 309 307 304 307 308 307 305 302 312 311 314 324 323 328 333 331 334 334 333 334 336 338 341 340 341 341 341 342 344 346 344 345 345 347 348 350 350 351 350 351 353 356 358 359 361 362 361 361 360 363 360 361 363
308 311 311 311 310 310 307 300 304 309 311 309 305 299 303 301 298 302 307 306 308 309 306 329 330 330 331 332 332 333 336 339 339 338 339 340 341 344 346 345 346 346 346 347 348 349 350 351 350 352 355 357 359 360 361 360 360 359 358 359 358 359 360
308 310 310 308 311 311 307 306 312 303 298 297 304 303 296 296 296 300 304 307 307 310 312 320 325 328 330 332 335 334 334 338 337 338 339 341 342 344 346 345 345 345 345 346 349 349 352 354 354 353 355 356 358 359 359 356 356 356 356 354 356 358 359
308 308 307 300 304 309 311 311 307 309 306 301 299 301 304 304 299 298 301 305 303 312 313 324 327 330 332 333 334 335 335 336 337 338 339 339 343 344 344 345 348 346 347 349 348 349 352 354 354 354 356 355 355 357 357 357 359 360 357 354 355 355 356
307 301 304 302 305 302 303 304 304 305 304 308 306 305 302 301 300 300 300 300 306 318 331 331 330 332 333 333 332 335 335 337 338 339 339 340 340 343 344 345 345 345 345 345 345 348 351 354 354 354 355 356 357 359 358 359 359 360 360 357 355 357 357
300 303 308 308 307 308 306 304 303 305 302 300 298 297 305 303 301 298 299 298 308 324 331 331 331 330 332 334 334 334 335 336 340 341 341 341 341 343 345 346 347 345 345 344 345 347 350 351 350 351 353 354 356 357 358 360 361 360 361 359 358 361 359
301 305 308 310 310 310 309 308 305 307 306 305 301 293 300 303 305 306 306 302 310 326 329 331 331 331 333 335 334 334 336 338 340 342 342 342 344 344 346 347 347 346 346 348 346 346 347 350 351 352 354 354 354 356 357 360 360 361 360 360 362 362 362
306 307 309 310 309 309 307 308 309 307 304 305 303 302 304 302 303 301 303 301 308 323 329 330 331 333 335 337 336 336 337 339 342 342 344 344 344 346 348 348 349 348 350 352 349 347 348 349 351 351 354 356 356 357 357 359 360 361 361 361 361 363 363
300 302 305 305 309 309 306 306 309 310 310 308 307 307 310 303 303 303 301 297 308 324 328 329 330 331 331 333 335 337 335 338 340 342 344 345 345 345 346 349 350 350 349 346 345 345 344 346 350 352 351 352 356 357 358 358 359 361 362 362 362 362 363
290 290 292 295 300 303 307 309 309 310 309 309 306 300 304 298 306 307 302 302 318 324 326 326 328 329 330 331 333 335 337 336 337 339 341 342 343 344 346 347 347 347 348 346 346 346 346 349 349 350 349 351 353 355 356 358 357 360 362 362 362 360 361
296 298 300 303 306 305 303 305 307 308 310 311 309 307 303 299 304 304 306 308 315 321 321 324 326 328 327 328 331 331 334 335 337 339 339 340 342 343 346 346 346 346 346 346 347 348 348 348 349 350 350 349 349 350 351 354 358 358 359 361 362 361 362
303 303 303 304 305 303 304 304 304 308 310 312 308 304 302 313 305 299 310 314 311 318 322 324 325 327 327 329 331 332 333 335 335 336 336 337 339 341 341 342 343 344 345 345 346 346 346 346 348 348 349 351 350 352 351 355 356 356 357 359 360 360 359
304 304 304 305 304 304 304 305 305 306 311 313 310 309 312 314 306 301 315 317 309 315 322 325 325 327 327 330 331 334 336 335 334 335 334 334 335 337 338 339 341 343 342 343 345 346 346 346 346 347 347 349 351 351 352 352 353 353 357 355 353 354 356
303 304 305 305 304 304 304 304 305 306 309 312 313 313 314 313 314 316 316 319 318 323 325 326 326 329 329 330 332 333 333 333 334 333 333 333 334 335 336 337 338 340 341 342 345 345 346 346 347 347 347 347 348 349 350 353 353 354 356 356 355 354 353
301 303 304 304 303 303 302 304 305 306 306 311 313 314 315 314 312 316 312 319 319 325 330 328 329 330 329 331 330 330 332 332 331 331 332 332 332 332 334 335 336 337 339 340 341 343 345 347 346 346 347 347 348 349 350 352 353 353 355 354 354 354 353
299 302 302 302 303 302 302 303 304 305 305 306 311 312 315 314 314 315 316 316 316 323 327 327 328 327 328 327 327 328 330 331 330 330 330 330 330 330 330 332 333 333 333 335 336 336 336 337 340 342 344 345 346 347 348 349 352 353 352 352 352 352 353
297 302 303 302 300 299 297 300 304 309 310 310 314 316 317 316 316 314 310 317 324 325 326 324 325 325 327 328 327 327 329 330 330 329 328 328 328 328 329 329 330 330 330 331 333 333 335 335 336 337 337 336 337 342 345 348 352 353 352 350 350 351 352
298 301 302 303 299 290 293 311 313 312 308 309 307 309 314 316 318 318 319 321 325 326 325 322 322 323 325 326 328 329 329 327 327 329 329 328 328 328 329 329 330 330 330 330 330 331 331 332 333 334 333 334 335 338 338 340 342 344 345 344 345 347 350
296 300 302 297 292 294 308 310 311 315 314 312 312 314 314 315 318 319 318 320 322 325 326 325 323 323 323 323 324 326 329 329 328 327 328 329 328 326 326 327 329 330 330 329 330 330 331 331 332 334 334 333 333 333 334 335 338 339 341 342 342 343 344
301 298 296 287 292 305 306 305 307 309 309 310 310 313 314 318 318 320 320 321 322 325 325 323 321 320 320 320 321 322 325 329 328 327 327 327 327 326 327 327 328 328 329 330 329 330 334 331 330 330 331 332 330 332 333 332 331 333 335 337 337 338 339
294 296 296 296 304 302 303 303 304 305 305 306 307 305 312 318 320 321 321 322 322 323 325 323 323 323 321 317 316 320 323 324 326 328 327 327 326 326 327 328 327 327 328 329 331 332 332 331 332 332 332 332 332 332 331 331 331 331 332 332 334 336 338
300 296 294 296 295 292 300 305 308 310 309 309 311 308 309 318 321 323 322 320 320 320 321 322 323 325 319 312 312 317 321 322 322 325 324 323 322 322 324 327 327 326 326 328 329 329 329 329 330 332 333 333 332 331 331 331 330 330 331 331 332 334 336
299 296 293 291 289 296 304 306 308 310 312 312 312 308 303 315 321 323 323 321 322 320 319 320 322 320 315 313 313 317 321 323 325 324 324 322 321 321 321 322 322 323 323 324 325 327 327 326 328 329 330 330 329 328 330 329 330 330 331 332 332 331 332
299 298 294 292 297 299 306 308 310 311 313 311 310 296 297 308 318 321 322 322 321 319 319 321 321 317 313 311 313 320 323 324 324 323 322 325 321 321 322 322 322 323 323 322 322 322 322 323 325 327 326 326 326 325 325 328 328 329 331 333 334 334 333
298 295 296 298 300 307 310 311 311 312 314 308 298 293 303 311 314 321 323 323 323 322 320 321 319 320 322 318 319 322 323 321 321 322 322 323 323 322 321 321 323 320 320 320 319 320 322 322 322 324 324 324 323 324 324 325 326 327 330 333 333 334 334
296 297 295 297 300 306 313 314 312 315 311 298 295 308 316 316 316 321 323 322 323 323 322 321 322 322 324 322 321 321 322 321 321 321 320 320 320 321 322 322 321 319 318 319 319 320 321 321 322 322 324 324 323 324 323 322 324 327 329 331 332 332 332
296 297 295 293 288 306 314 314 313 314 306 305 311 313 315 318 319 321 322 323 323 324 323 324 324 322 320 320 320 320 320 321 320 321 320 321 319 319 319 320 320 320 319 318 318 319 320 322 323 323 323 323 323 323 322 323 323 326 327 328 329 329 330
296 294 292 292 303 310 314 313 305 310 312 313 315 314 313 318 322 322 323 323 325 323 323 324 322 321 320 321 322 322 321 320 321 321 322 321 321 318 317 318 319 318 317 317 318 320 320 322 322 322 323 322 323 322 322 325 325 326 327 327 329 328 327
301 299 302 308 313 313 315 314 314 314 316 317 316 317 317 317 322 325 323 324 325 325 325 323 321 320 320 321 322 320 318 319 320 320 320 319 318 319 320 320 320 318 317 317 318 319 320 321 322 322 323 322 322 321 323 326 327 326 326 326 326 326 327
309 310 310 312 314 314 314 316 315 315 316 317 317 318 318 319 322 325 323 324 324 324 325 321 320 320 320 320 320 320 320 320 320 321 320 320 319 317 317 318 319 318 319 317 318 318 318 319 320 322 322 323 322 323 325 326 327 326 326 326 326 326 326
301 297 311 312 311 314 314 314 317 318 318 317 318 319 319 320 323 325 324 324 324 325 323 323 322 320 321 319 319 320 320 320 320 319 318 318 319 318 316 318 319 317 317 317 316 318 318 320 320 320 320 322 324 325 325 324 324 326 326 325 325 326 325
302 305 310 312 313 314 316 315 315 315 317 318 318 319 321 322 324 325 325 324 323 323 321 321 321 319 320 321 319 318 318 319 319 319 319 319 320 320 319 319 319 318 317 316 315 316 317 319 320 320 321 321 322 324 323 323 323 323 323 323 323 324 323
308 310 311 313 313 313 315 316 317 317 318 318 317 317 319 322 322 323 324 325 323 323 322 322 321 319 320 319 318 318 317 316 316 317 318 320 321 320 318 319 319 320 320 319 319 318 317 319 318 319 320 321 322 322 322 323 323 322 321 321 323 323 323
301 305 308 311 305 307 311 313 316 317 319 319 318 317 317 318 321 323 322 322 324 323 323 322 320 320 320 320 319 318 317 317 317 317 318 319 319 318 319 319 318 318 318 318 317 317 318 319 318 318 318 319 320 321 321 322 322 321 321 322 322 322 322
303 308 313 315 313 312 313 315 316 318 319 319 318 317 317 316 318 321 322 320 319 320 321 323 322 321 321 321 320 318 317 317 316 316 316 313 314 315 318 318 317 317 317 317 318 317 318 318 316 315 315 315 316 317 319 320 321 321 321 320 320 319 320
311 313 314 315 314 311 314 316 317 319 320 319 318 319 320 319 318 317 318 320 320 319 320 322 322 321 322 322 321 320 319 319 317 317 316 314 315 317 318 317 317 317 318 318 317 317 318 317 316 316 314 314 314 314 315 316 318 319 320 319 318 318 318
310 315 316 316 315 315 316 317 318 319 320 319 318 318 318 319 320 320 318 317 318 318 319 321 322 323 323 324 322 320 320 319 319 317 315 314 315 315 315 317 317 318 319 320 320 319 319 318 318 318 316 315 314 314 315 315 315 315 316 317 317 318 318
Wind_Speed
9 11 12 13 9 8 9 9 13 11 7 9 9 9 8 9 10 10 6 8 8 5 6 4 5 3 3 4 7 9 10 10 12 12 13 14 16 17 16 14 15 17 16 15 14 14 13 13 12 12 11 12 13 13 13 13 13 12 13 12 12 11 10
10 2 3 9 12 11 2 10 9 8 5 9 8 10 8 8 9 8 9 11 10 8 5 0 5 5 4 4 6 9 10 10 11 11 13 15 16 16 15 15 14 15 14 15 14 13 13 12 13 12 13 13 12 12 13 14 13 14 13 13 13 12 11
9 6 7 8 11 11 10 4 6 11 9 11 9 6 12 11 11 9 10 11 12 10 6 7 6 5 5 5 5 7 9 9 10 11 14 15 14 13 11 12 12 13 13 13 11 11 11 11 11 12 12 12 11 12 12 13 14 15 14 12 12 11 11
10 9 10 10 11 12 12 6 6 9 7 10 10 11 9 7 10 11 11 10 9 8 6 5 7 5 3 5 5 6 7 8 8 9 13 15 15 14 14 13 10 10 11 11 8 7 9 10 10 10 11 11 11 11 11 11 11 11 12 13 11 12 12
7 10 10 11 11 13 12 11 9 8 8 3 7 8 13 9 9 10 9 9 9 4 5 7 7 5 3 3 4 4 4 5 6 8 10 13 14 13 13 13 13 11 11 10 8 6 7 8 8 8 9 10 9 9 9 10 10 11 11 12 12 11 10
11 4 1 5 8 3 13 11 11 7 10 10 8 9 11 13 9 7 10 9 5 6 2 5 6 4 4 4 5 4 4 4 5 6 8 10 11 12 13 13 12 11 9 9 9 7 6 7 8 9 8 9 9 10 9 9 9 9 10 10 10 9 9
1 7 2 2 3 3 4 7 9 11 8 9 10 9 8 9 11 9 7 9 3 2 4 4 5 5 5 5 6 5 4 3 4 5 6 8 9 10 11 13 12 11 10 8 7 8 8 8 8 9 8 9 9 10 10 9 10 10 10 10 9 8 9
4 6 5 5 4 4 10 7 2 5 11 7 9 8 6 10 11 11 7 9 2 4 4 4 5 5 4 3 5 5 5 4 4 4 6 7 10 10 11 10 10 12 11 9 8 8 7 6 7 8 6 5 7 8 9 9 10 11 10 10 9 9 8
6 7 7 7 6 5 2 2 1 3 6 7 7 8 4 7 11 12 10 12 6 6 5 5 6 6 5 5 4 4 5 4 3 4 5 6 8 10 11 12 12 13 11 10 8 7 5 3 2 5 7 7 6 6 7 8 9 10 10 9 9 10 10
9 8 9 8 6 4 4 2 1 1 4 5 7 11 9 7 6 9 10 8 6 7 5 6 6 7 6 4 3 4 4 5 4 3 4 5 7 8 10 11 13 14 13 8 7 7 8 7 6 5 4 5 6 5 5 5 6 8 9 9 9 9 9
5 1 5 4 6 2 2 3 1 2 2 3 8 6 9 11 8 9 11 8 4 5 8 8 8 7 7 5 4 5 5 6 5 4 3 3 3 6 8 8 9 11 12 11 8 7 6 8 7 6 7 8 7 6 7 6 6 6 7 8 8 8 9
6 9 5 4 3 4 5 5 4 4 4 3 6 10 6 6 5 9 7 8 7 6 10 9 9 8 7 7 6 6 6 6 6 6 7 8 7 7 7 7 7 8 8 9 10 8 8 7 6 6 6 6 7 8 9 8 7 6 4 5 7 7 8
4 7 8 5 1 3 5 5 7 7 7 6 4 5 3 5 7 3 6 5 11 6 9 10 9 8 7 8 6 5 8 8 8 8 7 8 8 8 8 7 7 7 8 8 8 10 10 10 10 10 9 7 6 6 7 7 9 11 10 9 8 6 6
7 2 3 4 8 4 5 4 6 5 8 5 5 3 3 4 3 4 4 3 4 3 8 9 9 8 8 7 5 5 7 7 8 8 8 8 9 9 9 9 9 9 8 6 5 7 8 10 11 11 10 9 10 10 10 9 9 8 10 11 9 8 9
9 8 4 3 6 10 9 7 6 5 5 6 5 4 6 6 5 2 2 4 4 6 7 9 10 8 8 8 9 7 8 8 7 8 9 9 10 10 9 9 9 10 10 10 9 8 5 5 7 6 5 7 9 10 10 10 10 9 8 8 8 8 8
8 8 8 3 4 6 9 9 6 4 4 6 8 5 7 6 2 2 3 6 5 6 7 9 9 8 9 10 9 8 7 8 8 9 9 10 11 10 9 9 8 9 9 9 9 9 9 10 9 6 5 3 3 6 6 9 9 8 9 8 9 9 9
7 7 5 4 2 4 8 11 4 1 2 2 2 3 4 4 4 5 6 2 4 7 7 8 9 7 9 9 8 8 7 8 9 10 10 11 11 10 10 10 9 9 9 9 9 9 9 9 9 9 9 9 7 6 5 1 4 6 6 7 9 9 9
4 6 6 4 6 7 5 6 5 3 5 6 5 6 6 5 4 4 4 3 1 7 8 8 9 9 8 8 5 3 7 8 8 9 11 11 11 11 11 10 11 10 9 9 9 11 12 11 10 8 8 8 7 7 7 8 8 7 7 7 6 5 2
5 5 5 8 10 5 7 3 6 5 5 5 5 5 3 4 2 3 3 2 3 5 6 8 9 9 10 10 8 6 6 8 8 10 11 12 12 12 12 10 11 11 11 9 8 9 11 10 9 9 9 8 7 7 8 9 8 8 8 8 7 6 5
2 5 7 7 5 7 4 6 4 6 5 2 6 2 2 3 3 3 3 1 4 6 7 11 10 10 11 10 10 9 7 7 10 10 11 12 12 13 11 12 10 11 9 9 9 8 9 10 8 8 9 8 9 7 7 9 8 8 7 8 8 7 7
7 5 6 5 4 5 6 4 6 6 5 7 5 3 3 4 1 1 3 5 6 8 11 10 10 10 9 8 7 8 8 9 8 9 12 13 13 13 12 12 11 9 8 9 9 8 8 9 8 8 8 7 8 8 9 7 7 7 8 7 7 7 8
5 6 6 5 5 7 6 6 4 2 2 4 5 5 2 3 3 2 4 5 8 8 9 9 10 11 9 5 3 3 7 8 10 13 15 13 11 11 11 11 10 10 9 9 9 9 10 10 9 7 7 7 9 8 9 9 9 8 8 8 6 7 7
5 6 7 5 4 4 5 5 6 5 3 3 1 6 2 4 5 2 0 4 8 9 8 10 11 10 9 7 5 5 8 7 8 10 10 12 12 12 11 10 10 9 8 8 8 8 9 10 9 8 8 8 8 8 8 8 8 9 8 7 7 7 6
5 6 6 4 1 3 6 8 7 7 3 4 4 8 3 7 8 2 1 4 7 9 6 6 8 6 7 6 6 7 8 9 7 9 11 11 12 12 11 11 10 9 8 8 9 9 9 8 8 8 8 8 8 7 7 7 8 8 8 7 7 7 6
3 3 5 2 5 6 8 9 9 6 3 2 7 5 5 7 7 7 2 4 8 9 10 8 6 3 4 9 9 7 7 8 8 6 8 10 10 11 11 11 9 8 7 7 8 8 6 6 6 7 7 8 8 7 7 7 8 8 7 6 7 7 7
3 2 4 0 7 3 7 8 7 5 6 5 3 6 5 7 8 5 4 3 7 10 11 8 3 4 10 13 11 12 10 9 8 9 10 10 11 10 10 9 9 8 8 8 8 8 6 6 6 7 7 8 7 6 7 7 7 6 6 6 7 7 8
4 3 4 3 2 5 9 12 3 9 4 2 5 7 7 7 6 5 4 4 6 8 9 7 6 9 9 12 13 12 12 11 12 12 9 8 7 7 6 7 8 7 7 7 7 7 6 7 6 7 8 8 7 7 7 7 5 5 5 6 6 6 7
4 3 2 2 6 6 8 8 5 5 6 6 6 6 6 7 5 3 3 4 6 7 7 7 9 11 12 10 11 12 14 13 12 13 11 8 7 5 6 6 5 7 7 7 7 7 7 7 7 6 7 7 7 7 7 5 5 5 5 5 4 5 6
5 5 4 4 3 4 4 4 4 4 5 4 5 5 6 6 4 4 3 3 5 6 4 8 10 9 9 9 9 9 9 12 13 12 12 11 10 9 7 7 5 4 6 8 8 8 7 8 7 6 6 6 7 7 5 4 5 5 5 4 4 5 5
1 2 3 1 1 3 4 3 3 4 5 5 5 6 5 5 4 3 3 1 4 5 7 11 7 6 5 6 8 9 9 8 9 10 10 9 9 9 8 5 5 5 6 8 9 9 8 7 6 5 5 5 6 5 4 4 5 5 4 5 5 5 4
3 2 3 3 3 3 4 3 3 2 5 6 6 6 6 5 5 3 1 1 2 5 9 10 9 7 5 4 5 6 7 9 8 8 9 9 9 10 9 8 5 3 5 7 8 8 7 6 5 5 5 4 5 4 3 4 5 4 4 4 4 3 4
6 3 4 4 3 3 3 3 3 4 5 6 7 6 5 4 4 4 4 3 5 9 11 14 12 11 10 9 7 5 5 5 7 6 6 6 7 7 8 7 6 7 8 8 7 5 4 5 5 5 4 4 5 5 5 5 5 4 4 4 4 5 5
0 3 4 4 3 3 5 6 6 6 5 5 7 8 8 7 6 5 3 2 4 7 11 13 12 11 10 10 11 7 4 4 5 5 5 3 3 5 5 4 4 5 6 7 6 6 6 4 4 4 5 5 5 5 5 4 4 4 4 4 3 3 3
7 2 4 2 4 2 5 5 6 6 6 7 7 7 9 9 7 5 5 4 5 5 10 12 13 14 12 11 11 10 9 8 7 5 4 4 3 3 3 3 4 5 6 5 5 5 5 4 4 4 4 5 5 5 4 4 4 4 3 2 2 3 3
3 5 2 3 1 3 4 4 4 5 5 5 7 8 8 8 7 6 5 4 4 4 4 6 9 12 11 12 12 12 10 11 11 11 9 8 4 2 3 4 5 5 5 5 6 5 4 4 4 3 3 3 4 5 5 4 4 4 3 3 3 3 3
3 1 4 2 2 2 4 3 4 4 4 4 5 6 6 7 7 6 5 3 1 1 2 4 5 8 8 9 11 13 12 12 12 9 7 10 10 9 5 4 5 6 7 7 6 6 5 4 4 4 4 3 4 4 4 4 4 4 4 3 3 3 4
1 2 2 1 1 1 2 2 2 3 4 4 4 5 6 5 5 4 4 4 2 1 3 4 6 5 7 9 11 11 11 13 13 12 9 8 9 9 8 7 8 8 8 7 6 6 6 5 5 4 4 4 3 3 3 3 4 4 5 4 4 4 4
Wind_Direction
199 209 198 207 229 225 166 201 212 221 229 238 242 261 256 262 256 225 191 221 236 120 185 157 168 187 178 195 191 190 177 173 171 180 181 187 189 192 191 194 193 189 190 192 192 193 194 196 196 196 187 184 185 181 181 183 187 191 194 195 200 201 200
196 279 230 219 196 258 142 213 215 209 244 282 251 230 195 230 234 226 200 215 229 209 206 146 190 186 144 148 174 175 171 166 175 177 179 183 188 187 187 190 195 188 190 190 193 196 197 198 198 193 187 188 186 187 184 182 185 192 196 196 201 201 201
151 172 202 203 223 226 232 291 176 194 180 217 212 264 220 210 223 237 190 213 237 222 190 169 169 156 129 130 118 155 164 172 180 177 173 182 177 179 180 182 184 184 185 184 188 194 196 197 194 191 188 188 188 192 193 192 192 193 197 199 200 202 202
148 185 195 209 184 196 240 277 246 209 246 226 207 212 258 235 227 231 198 204 233 208 218 132 124 99 101 109 157 159 158 171 181 175 176 177 170 172 179 172 161 169 161 159 159 178 181 185 186 186 186 190 193 193 190 198 194 193 198 203 198 203 203
167 198 186 223 190 179 197 214 235 196 234 276 245 204 227 229 241 229 230 204 223 104 53 97 114 109 113 156 140 157 156 170 167 174 177 173 176 176 184 179 173 159 148 147 156 179 186 186 184 185 184 188 186 185 190 190 190 190 197 204 202 201 205
208 146 83 340 333 261 195 198 223 219 209 206 215 226 205 236 235 235 231 239 171 81 65 102 106 110 139 140 139 135 164 168 152 157 180 170 177 173 175 177 165 144 131 136 157 176 174 179 180 184 180 179 183 183 184 182 185 189 196 201 207 201 208
249 41 90 26 303 232 300 225 220 217 215 213 213 234 196 218 237 262 265 277 124 64 92 94 109 126 150 161 161 160 137 121 155 160 161 166 164 175 173 176 170 145 134 132 147 159 173 183 184 183 181 181 182 184 183 182 183 186 191 196 195 200 206
129 131 118 150 169 201 203 193 304 234 224 230 234 226 265 234 214 225 212 238 174 122 99 121 125 108 116 156 147 156 142 134 152 156 151 156 172 175 171 164 155 141 135 129 130 140 152 179 180 176 168 170 182 184 186 186 189 186 187 191 192 196 202
191 150 165 149 143 187 207 236 357 317 285 273 286 295 289 263 227 215 223 231 183 128 142 149 144 135 145 150 154 156 144 128 118 137 153 159 166 169 166 160 155 143 142 145 146 148 133 104 130 126 142 154 169 184 189 190 190 185 184 186 188 192 198
213 204 195 169 171 166 138 82 283 8 271 248 233 229 228 248 245 230 226 221 90 129 173 161 168 159 126 115 142 132 126 127 110 123 111 137 163 167 165 165 163 157 161 147 153 157 158 162 164 140 154 177 164 159 183 185 199 192 185 182 185 192 195
236 168 52 54 275 147 177 69 46 318 295 276 245 271 254 228 214 218 231 258 125 168 181 171 170 182 154 141 170 148 132 125 120 107 132 121 116 157 162 170 179 181 177 177 168 155 153 160 149 151 168 181 180 194 204 204 200 193 185 178 182 188 188
197 138 154 99 358 73 53 41 43 19 347 307 239 222 240 1 278 238 204 194 210 196 175 173 166 173 165 156 171 149 132 138 128 118 83 86 102 101 104 105 131 160 180 188 182 172 166 158 154 156 166 180 181 180 189 187 179 185 189 180 169 176 188
215 199 174 188 241 16 349 4 23 24 6 6 284 269 326 315 247 274 3 278 233 193 166 157 155 163 174 161 158 146 125 121 122 129 122 109 109 120 115 119 139 160 159 176 178 176 182 179 178 175 176 176 168 169 181 183 183 198 199 199 204 191 189
198 197 255 238 248 245 282 341 342 16 7 13 349 325 348 315 304 321 294 81 291 96 141 139 135 140 145 137 116 128 132 127 123 119 123 124 120 109 99 96 86 84 91 108 157 160 168 172 178 183 182 179 182 182 190 190 194 197 200 208 201 191 194
220 213 199 259 270 262 267 285 306 313 349 1 13 334 3 307 231 278 243 186 131 88 110 121 129 132 130 142 145 134 120 129 123 114 107 101 101 95 94 92 88 87 91 97 97 99 115 151 174 180 177 198 194 194 197 194 193 187 190 196 199 196 198
229 209 233 279 317 294 277 275 276 300 314 350 14 360 7 330 329 308 181 190 164 99 113 116 144 141 150 139 135 134 132 119 117 119 114 109 103 101 98 97 93 91 93 93 94 91 86 77 74 96 119 129 214 198 202 210 206 197 201 207 208 206 205
232 203 226 222 248 287 262 247 251 34 63 33 72 57 32 14 313 260 216 80 54 148 150 157 149 162 154 141 141 142 122 105 119 120 111 108 106 105 105 104 103 98 94 89 90 88 84 81 78 65 68 68 58 58 65 125 194 198 208 221 224 225 222
240 203 208 190 215 210 215 62 22 355 341 359 356 36 20 39 317 11 356 43 70 157 173 166 162 162 144 134 89 63 118 117 125 127 118 112 110 106 103 106 106 101 95 91 84 84 82 80 74 62 66 75 71 80 77 75 81 85 92 85 81 80 87
234 205 209 215 219 223 83 35 33 1 358 344 5 73 52 21 5 318 233 169 205 189 175 154 116 104 97 70 74 56 110 129 132 128 125 121 119 107 105 102 104 103 100 96 95 95 95 90 89 84 69 59 58 61 75 80 84 89 87 89 81 81 81
250 222 217 222 221 88 100 77 42 13 293 329 268 106 322 31 2 301 271 165 161 180 160 123 116 120 106 88 59 45 43 130 137 134 127 121 119 116 111 106 98 100 101 101 97 98 105 101 93 94 105 113 100 85 65 68 62 66 74 82 85 83 80
253 236 230 233 116 157 134 134 44 11 9 350 358 297 100 24 351 30 107 123 132 155 154 151 154 136 120 86 62 39 54 58 63 119 119 117 114 113 114 108 100 88 91 94 94 90 83 88 88 88 90 93 95 93 86 76 77 68 68 63 67 81 86
255 258 240 218 228 235 116 67 82 43 5 311 295 278 260 357 346 104 123 140 152 147 157 165 161 164 145 138 123 76 79 89 89 99 112 108 108 107 103 102 97 93 90 94 94 96 96 92 86 80 79 79 85 88 90 95 93 83 72 65 55 49 53
220 239 250 232 250 78 39 31 14 8 358 291 264 267 199 26 328 348 163 147 171 164 165 165 171 181 180 165 143 138 123 115 110 103 105 122 121 118 112 106 100 89 80 84 92 90 88 88 83 77 73 74 77 74 74 78 80 77 72 70 62 54 46
246 264 251 256 280 69 24 2 347 359 324 245 241 257 174 358 328 316 185 175 165 165 160 180 188 196 186 134 114 136 135 130 123 121 122 129 129 120 110 103 95 92 97 97 91 86 81 83 90 86 79 74 70 70 72 73 74 67 62 57 61 62 58
109 259 249 173 116 65 11 348 337 2 353 279 243 248 25 344 314 292 282 181 177 161 151 177 189 204 106 113 98 63 59 61 57 77 107 108 105 109 110 105 105 103 95 86 86 81 73 67 68 69 71 71 67 62 63 64 63 65 61 59 61 59 58
281 291 262 108 91 52 332 335 334 327 278 244 284 19 319 305 300 273 266 212 173 178 172 184 177 121 129 123 123 128 122 110 89 59 56 65 76 85 96 101 105 103 102 102 98 97 96 92 85 79 75 70 64 60 63 65 68 70 70 63 59 59 56
239 233 259 243 207 59 3 336 276 9 343 62 352 330 324 321 314 259 226 216 181 185 178 169 125 126 126 134 135 132 129 126 120 108 92 77 70 74 80 105 114 117 113 102 89 83 77 75 79 84 84 82 75 69 61 51 56 56 60 65 67 68 64
313 219 267 41 29 4 13 357 42 24 18 345 335 321 328 341 323 262 228 188 189 180 195 166 151 140 141 141 142 135 133 129 125 124 125 114 94 85 90 79 73 99 103 99 93 83 75 71 71 71 81 83 78 72 61 42 46 51 59 65 71 77 75
327 14 34 57 25 19 33 20 45 25 1 345 325 310 302 320 351 334 261 205 201 186 213 156 148 148 152 145 143 127 128 131 134 135 138 133 123 105 59 39 34 44 91 97 91 87 78 71 65 72 80 87 85 74 63 51 46 47 48 51 53 58 59
43 127 16 103 126 48 39 84 50 18 14 18 352 354 345 17 350 309 303 161 213 172 180 146 121 95 98 126 140 138 136 130 126 132 131 128 122 115 118 127 122 110 74 74 82 76 72 72 71 58 64 73 75 68 58 47 50 48 49 50 50 46 58
280 147 132 105 72 73 49 56 99 68 36 27 13 15 5 8 3 13 27 20 138 155 128 125 109 135 124 74 110 126 149 154 148 144 144 150 152 152 145 135 116 75 76 73 63 59 55 38 48 62 57 67 80 88 76 80 66 43 45 49 48 47 45
269 47 99 88 82 86 47 20 53 47 39 33 31 31 30 31 37 35 75 113 137 141 144 143 165 165 146 127 110 123 119 134 152 150 147 155 154 141 135 148 160 142 113 102 92 74 49 34 33 34 54 61 58 46 56 53 63 66 54 28 39 33 36
358 161 142 126 132 113 88 78 56 45 28 32 42 36 44 49 58 66 70 74 140 152 142 152 159 164 160 151 152 158 132 127 129 121 115 97 102 116 131 147 138 112 120 118 120 114 91 58 30 36 40 43 51 52 45 49 59 55 57 64 47 47 39
249 314 98 168 255 173 110 74 60 48 40 43 49 48 48 48 52 54 74 94 116 148 149 154 164 169 165 159 153 160 161 170 149 124 113 90 86 113 129 148 131 117 107 113 119 110 99 90 83 65 40 40 41 44 45 43 37 51 53 56 65 53 30
357 75 88 65 84 80 59 64 62 49 36 47 55 54 51 51 54 58 72 87 104 128 173 189 187 176 168 170 174 174 171 172 174 176 150 124 116 92 260 171 149 136 135 145 140 131 123 118 102 96 91 71 52 44 37 36 38 51 42 39 30 47 32
132 95 84 26 333 330 97 73 59 54 33 21 59 61 59 55 48 52 63 59 65 96 141 182 197 177 184 187 187 191 186 181 180 178 168 169 168 167 180 189 171 168 169 168 159 150 150 153 145 140 123 102 90 73 48 36 26 32 25 32 42 36 37
330 89 99 61 19 79 119 82 56 56 54 29 38 44 39 39 51 47 58 64 38 219 205 195 205 227 225 209 210 208 195 191 189 177 173 175 171 162 176 191 188 186 180 172 163 164 168 165 162 153 138 118 99 92 85 62 49 42 26 19 24 25 31